Time,TemperatureF,DewpointF,PressureIn,WindDirection,WindDirectionDegrees,WindSpeedMPH,WindSpeedGustMPH,Humidity,HourlyPrecipIn,Conditions,Clouds,dailyrainin,SolarRadiationWatts/m^2,SoftwareType,DateUTC
2013-01-01 00:00:00,44.8,43.5,30.05,North,10,4.0,10.0,95,0.00,,,0.16,0.00,VWS V14.01,2013-01-01 06:00:00,
2013-01-01 00:05:00,44.8,43.5,30.05,NNE,15,3.0,6.0,95,0.00,,,0.00,0.00,VWS V14.01,2013-01-01 06:05:00,
2013-01-01 00:10:00,44.8,43.5,30.05,NNE,15,3.0,6.0,95,0.00,,,0.00,0.00,VWS V14.01,2013-01-01 06:10:00,
2013-01-01 00:15:00,44.8,43.5,30.04,NNE,19,5.0,7.0,95,0.00,,,0.00,0.00,VWS V14.01,2013-01-01 06:15:00,
2013-01-01 00:20:00,44.6,43.3,30.04,NNE,19,4.0,7.0,95,0.00,,,0.00,0.00,VWS V14.01,2013-01-01 06:20:00,
2013-01-01 00:25:00,44.5,43.2,30.04,NNE,19,2.0,8.0,95,0.00,,,0.00,0.00,VWS V14.01,2013-01-01 06:25:00,
2013-01-01 00:30:00,44.3,43.0,30.04,NNE,21,5.0,8.0,95,0.00,,BKN100,0.00,0.00,VWS V14.01,2013-01-01 06:30:00,
2013-01-01 00:35:00,44.3,43.0,30.04,NNE,21,2.0,7.0,95,0.00,,BKN100,0.00,0.00,VWS V14.01,2013-01-01 06:35:00,
2013-01-01 00:40:00,44.2,42.9,30.04,NNE,21,2.0,7.0,95,0.00,,BKN100,0.00,0.00,VWS V14.01,2013-01-01 06:40:00,
2013-01-01 00:45:00,44.2,42.9,30.04,NNE,21,1.0,4.0,95,0.00,,BKN100,0.00,0.00,VWS V14.01,2013-01-01 06:45:00,
2013-01-01 00:50:00,44.2,42.9,30.04,NNE,21,3.0,4.0,95,0.00,,BKN100,0.00,0.00,VWS V14.01,2013-01-01 06:50:00,
2013-01-01 00:55:00,44.2,42.9,30.04,NNE,21,1.0,4.0,95,0.00,,BKN100,0.00,0.00,VWS V14.01,2013-01-01 06:55:00,
2013-01-01 01:00:00,44.2,42.9,30.04,NNE,21,3.0,6.0,95,0.00,,BKN100,0.00,0.00,VWS V14.01,2013-01-01 07:00:00,
2013-01-01 01:05:00,44.2,42.9,30.04,NNE,22,3.0,6.0,95,0.00,,BKN100,0.00,0.00,VWS V14.01,2013-01-01 07:05:00,
2013-01-01 01:10:00,44.1,42.8,30.04,NNE,26,3.0,7.0,95,0.00,,BKN100,0.00,0.00,VWS V14.01,2013-01-01 07:10:00,
2013-01-01 01:15:00,43.9,42.6,30.04,NNE,26,3.0,5.0,95,0.00,,BKN100,0.00,0.00,VWS V14.01,2013-01-01 07:15:00,
2013-01-01 01:20:00,43.8,42.5,30.04,NNE,26,1.0,6.0,95,0.00,,BKN100,0.00,0.00,VWS V14.01,2013-01-01 07:20:00,
2013-01-01 01:25:00,43.8,42.5,30.04,NNE,26,3.0,3.0,95,0.00,,BKN100,0.00,0.00,VWS V14.01,2013-01-01 07:25:00,
2013-01-01 01:30:00,43.8,42.5,30.05,NNE,26,0.0,3.0,95,0.00,,BKN100,0.00,0.00,VWS V14.01,2013-01-01 07:30:00,
2013-01-01 01:35:00,43.8,42.5,30.05,NNE,26,3.0,3.0,95,0.00,,BKN085,0.00,0.00,VWS V14.01,2013-01-01 07:35:00,
2013-01-01 01:40:00,43.6,42.3,30.05,NNE,26,3.0,5.0,95,0.00,,BKN085,0.00,0.00,VWS V14.01,2013-01-01 07:40:00,
2013-01-01 01:45:00,43.5,42.2,30.05,NNE,26,2.0,6.0,95,0.00,,BKN085,0.00,0.00,VWS V14.01,2013-01-01 07:45:00,
2013-01-01 01:50:00,43.3,42.0,30.05,NNE,26,1.0,6.0,95,0.00,,BKN085,0.00,0.00,VWS V14.01,2013-01-01 07:50:00,
2013-01-01 01:55:00,43.3,42.0,30.05,NNE,26,0.0,3.0,95,0.00,,BKN085,0.00,0.00,VWS V14.01,2013-01-01 07:55:00,
2013-01-01 02:00:00,43.3,42.0,30.06,NNE,26,0.0,3.0,95,0.00,,BKN085,0.00,0.00,VWS V14.01,2013-01-01 08:00:00,
2013-01-01 02:05:00,43.3,42.0,30.06,NNE,26,1.0,3.0,95,0.00,,BKN085,0.00,0.00,VWS V14.01,2013-01-01 08:05:00,
2013-01-01 02:10:00,43.3,42.0,30.06,NNE,26,2.0,3.0,95,0.00,,BKN085,0.00,0.00,VWS V14.01,2013-01-01 08:10:00,
2013-01-01 02:16:00,43.3,42.0,30.07,NNE,26,0.0,2.0,95,0.00,,BKN085,0.00,0.00,VWS V14.01,2013-01-01 08:16:00,
2013-01-01 02:21:00,43.3,42.0,30.07,NNE,26,1.0,3.0,95,0.00,,BKN085,0.00,0.00,VWS V14.01,2013-01-01 08:21:00,
2013-01-01 02:26:00,43.3,42.0,30.07,NNE,26,2.0,3.0,95,0.00,,BKN085,0.00,0.00,VWS V14.01,2013-01-01 08:26:00,
2013-01-01 02:31:00,43.2,41.9,30.05,NNE,26,2.0,4.0,95,0.00,,BKN085,0.00,0.00,VWS V14.01,2013-01-01 08:31:00,
2013-01-01 02:36:00,43.2,41.9,30.05,NNE,26,1.0,4.0,95,0.00,,OVC080,0.00,0.00,VWS V14.01,2013-01-01 08:36:00,
2013-01-01 02:41:00,43.2,41.9,30.05,NNE,26,3.0,4.0,95,0.00,,OVC080,0.00,0.00,VWS V14.01,2013-01-01 08:41:00,
2013-01-01 02:46:00,43.2,41.9,30.07,NNE,26,1.0,4.0,95,0.00,,OVC080,0.00,0.00,VWS V14.01,2013-01-01 08:46:00,
2013-01-01 02:51:00,43.1,41.8,30.07,NNE,26,3.0,4.0,95,0.00,,OVC080,0.00,0.00,VWS V14.01,2013-01-01 08:51:00,
2013-01-01 02:56:00,43.1,41.8,30.07,NNE,26,0.0,3.0,95,0.00,,OVC080,0.00,0.00,VWS V14.01,2013-01-01 08:56:00,
2013-01-01 03:01:00,43.1,41.8,30.06,NNE,26,0.0,3.0,95,0.00,,OVC080,0.00,0.00,VWS V14.01,2013-01-01 09:01:00,
2013-01-01 03:06:00,43.1,41.8,30.06,NNE,26,1.0,4.0,95,0.00,,OVC080,0.00,0.00,VWS V14.01,2013-01-01 09:06:00,
2013-01-01 03:11:00,43.1,41.8,30.06,NNE,26,2.0,4.0,95,0.00,,OVC080,0.00,0.00,VWS V14.01,2013-01-01 09:11:00,
2013-01-01 03:16:00,43.1,41.8,30.07,NNE,26,1.0,4.0,95,0.00,,OVC080,0.00,0.00,VWS V14.01,2013-01-01 09:16:00,
2013-01-01 03:21:00,43.1,41.8,30.07,NNE,26,2.0,4.0,95,0.00,,OVC080,0.00,0.00,VWS V14.01,2013-01-01 09:21:00,
2013-01-01 03:26:00,43.1,41.8,30.07,NNE,26,4.0,5.0,95,0.00,,OVC080,0.00,0.00,VWS V14.01,2013-01-01 09:26:00,
2013-01-01 03:31:00,43.1,41.8,30.08,NNE,25,2.0,5.0,95,0.00,,OVC080,0.00,0.00,VWS V14.01,2013-01-01 09:31:00,
2013-01-01 03:36:00,42.9,41.6,30.08,NNE,26,2.0,5.0,95,0.00,,BKN090,0.00,0.00,VWS V14.01,2013-01-01 09:36:00,
2013-01-01 03:41:00,42.9,41.6,30.08,NNE,25,4.0,5.0,95,0.00,,BKN090,0.00,0.00,VWS V14.01,2013-01-01 09:41:00,
2013-01-01 03:46:00,42.9,41.6,30.09,NNE,25,0.0,4.0,95,0.00,,BKN090,0.00,0.00,VWS V14.01,2013-01-01 09:46:00,
2013-01-01 03:51:00,42.9,41.6,30.09,NNE,25,2.0,4.0,95,0.00,,BKN090,0.00,0.00,VWS V14.01,2013-01-01 09:51:00,
2013-01-01 03:56:00,42.9,41.6,30.09,NNE,25,2.0,4.0,95,0.00,,BKN090,0.00,0.00,VWS V14.01,2013-01-01 09:56:00,
2013-01-01 04:01:00,42.8,41.5,30.09,NNE,25,0.0,4.0,95,0.00,,BKN090,0.00,0.00,VWS V14.01,2013-01-01 10:01:00,
2013-01-01 04:06:00,42.8,41.5,30.09,NNE,25,3.0,4.0,95,0.00,,BKN090,0.00,0.00,VWS V14.01,2013-01-01 10:06:00,
2013-01-01 04:11:00,42.8,41.5,30.09,NNE,25,1.0,4.0,95,0.00,,BKN090,0.00,0.00,VWS V14.01,2013-01-01 10:11:00,
2013-01-01 04:16:00,42.8,41.5,30.07,NNE,25,2.0,4.0,95,0.00,,BKN090,0.00,0.00,VWS V14.01,2013-01-01 10:16:00,
2013-01-01 04:21:00,42.8,41.5,30.07,NNE,25,2.0,4.0,95,0.00,,BKN090,0.00,0.00,VWS V14.01,2013-01-01 10:21:00,
2013-01-01 04:26:00,42.8,41.5,30.07,NNE,25,3.0,4.0,95,0.00,,BKN090,0.00,0.00,VWS V14.01,2013-01-01 10:26:00,
2013-01-01 04:31:00,42.8,41.5,30.07,NNE,25,0.0,0.0,95,0.00,,BKN090,0.00,0.00,VWS V14.01,2013-01-01 10:31:00,
2013-01-01 04:36:00,42.8,41.5,30.07,NNE,25,2.0,4.0,95,0.00,,-RA,0.00,0.00,VWS V14.01,2013-01-01 10:36:00,
2013-01-01 04:41:00,42.8,41.5,30.07,NNE,25,2.0,3.0,95,0.00,,-RA,0.00,0.00,VWS V14.01,2013-01-01 10:41:00,
2013-01-01 04:46:00,42.8,41.5,30.06,NNE,25,1.0,3.0,95,0.00,,-RA,0.00,0.00,VWS V14.01,2013-01-01 10:46:00,
2013-01-01 04:51:00,42.8,41.5,30.06,NNE,25,1.0,1.0,95,0.00,,-RA,0.00,0.00,VWS V14.01,2013-01-01 10:51:00,
2013-01-01 04:56:00,42.8,41.5,30.06,NNE,25,2.0,5.0,95,0.00,,-RA,0.00,0.00,VWS V14.01,2013-01-01 10:56:00,
2013-01-01 05:01:00,42.8,41.5,30.08,NNE,25,3.0,3.0,95,0.00,,-RA,0.00,0.00,VWS V14.01,2013-01-01 11:01:00,
2013-01-01 05:06:00,42.8,41.5,30.08,NNE,16,5.0,6.0,95,0.00,,-RA,0.00,0.00,VWS V14.01,2013-01-01 11:06:00,
2013-01-01 05:11:00,42.8,41.5,30.08,North,360,6.0,6.0,95,0.00,,-RA,0.00,0.00,VWS V14.01,2013-01-01 11:11:00,
2013-01-01 05:16:00,42.8,41.5,30.09,North,349,1.0,6.0,95,0.00,,-RA,0.00,0.00,VWS V14.01,2013-01-01 11:16:00,
2013-01-01 05:21:00,42.8,41.5,30.09,North,349,3.0,3.0,95,0.00,,-RA,0.00,0.00,VWS V14.01,2013-01-01 11:21:00,
2013-01-01 05:26:00,42.8,41.5,30.09,North,350,4.0,6.0,95,0.00,,-RA,0.00,0.00,VWS V14.01,2013-01-01 11:26:00,
2013-01-01 05:31:00,42.8,41.5,30.10,NNW,347,3.0,5.0,95,0.00,,-RA,0.00,0.00,VWS V14.01,2013-01-01 11:31:00,
2013-01-01 05:36:00,42.8,41.5,30.10,NNW,330,10.0,10.0,95,0.00,,OVC090,0.00,0.00,VWS V14.01,2013-01-01 11:36:00,
2013-01-01 05:41:00,42.8,41.5,30.10,NNW,334,2.0,4.0,95,0.00,,OVC090,0.00,0.00,VWS V14.01,2013-01-01 11:41:00,
2013-01-01 05:46:00,42.8,41.5,30.10,NNW,331,6.0,12.0,95,0.00,,OVC090,0.00,0.00,VWS V14.01,2013-01-01 11:46:00,
2013-01-01 05:51:00,42.8,41.5,30.10,NW,321,7.0,7.0,95,0.00,,OVC095,0.00,0.00,VWS V14.01,2013-01-01 11:51:00,
2013-01-01 05:56:00,42.8,41.5,30.10,NNW,336,8.0,10.0,95,0.00,,OVC095,0.00,0.00,VWS V14.01,2013-01-01 11:56:00,
2013-01-01 06:01:00,42.8,41.5,30.12,North,360,6.0,10.0,95,0.00,,OVC095,0.00,0.00,VWS V14.01,2013-01-01 12:01:00,
2013-01-01 06:06:00,42.6,41.0,30.12,NNW,343,3.0,11.0,94,0.00,,OVC095,0.00,0.00,VWS V14.01,2013-01-01 12:06:00,
2013-01-01 06:11:00,42.5,40.9,30.12,North,355,4.0,7.0,94,0.00,,OVC095,0.00,0.00,VWS V14.01,2013-01-01 12:11:00,
2013-01-01 06:16:00,42.5,40.9,30.12,North,349,4.0,9.0,94,0.00,,OVC095,0.00,0.00,VWS V14.01,2013-01-01 12:16:00,
2013-01-01 06:21:00,42.3,40.7,30.12,North,360,5.0,9.0,94,0.00,,OVC095,0.00,0.00,VWS V14.01,2013-01-01 12:21:00,
2013-01-01 06:26:00,42.3,40.7,30.12,North,5,5.0,10.0,94,0.00,,OVC095,0.00,0.00,VWS V14.01,2013-01-01 12:26:00,
2013-01-01 06:31:00,42.2,40.6,30.13,North,351,4.0,6.0,94,0.00,,OVC095,0.00,0.00,VWS V14.01,2013-01-01 12:31:00,
2013-01-01 06:36:00,42.2,40.6,30.13,North,355,4.0,9.0,94,0.00,,-RA,0.00,0.00,VWS V14.01,2013-01-01 12:36:00,
2013-01-01 06:41:00,42.1,40.5,30.13,North,5,7.0,7.0,94,0.00,,-RA,0.00,0.00,VWS V14.01,2013-01-01 12:41:00,
2013-01-01 06:46:00,42.1,40.5,30.11,North,355,5.0,12.0,94,0.00,,-RA,0.00,0.00,VWS V14.01,2013-01-01 12:46:00,
2013-01-01 06:51:00,41.9,40.3,30.11,North,5,6.0,6.0,94,0.00,,-RA,0.00,0.00,VWS V14.01,2013-01-01 12:51:00,
2013-01-01 06:56:00,41.9,40.3,30.11,North,360,6.0,10.0,94,0.00,,-RA,0.00,0.00,VWS V14.01,2013-01-01 12:56:00,
2013-01-01 07:01:00,41.9,40.3,30.12,North,5,6.0,7.0,94,0.00,,-RA,0.00,0.00,VWS V14.01,2013-01-01 13:01:00,
2013-01-01 07:06:00,41.9,40.3,30.12,North,360,5.0,10.0,94,0.00,,-RA,0.00,0.00,VWS V14.01,2013-01-01 13:06:00,
2013-01-01 07:11:00,41.9,40.0,30.12,North,9,10.0,10.0,93,0.00,,-RA,0.00,0.00,VWS V14.01,2013-01-01 13:11:00,
2013-01-01 07:16:00,41.9,40.0,30.12,North,9,7.0,10.0,93,0.00,,-RA,0.00,0.00,VWS V14.01,2013-01-01 13:16:00,
2013-01-01 07:21:00,41.8,39.9,30.12,NNE,27,5.0,9.0,93,0.00,,-RA,0.00,0.00,VWS V14.01,2013-01-01 13:21:00,
2013-01-01 07:26:00,41.8,39.9,30.12,NNE,13,5.0,12.0,93,0.00,,-RA,0.00,0.00,VWS V14.01,2013-01-01 13:26:00,
2013-01-01 07:31:00,41.8,39.9,30.15,North,355,3.0,3.0,93,0.00,,-RA,0.00,0.00,VWS V14.01,2013-01-01 13:31:00,
2013-01-01 07:36:00,41.8,39.9,30.15,North,355,5.0,7.0,93,0.00,,OVC090,0.00,0.00,VWS V14.01,2013-01-01 13:36:00,
2013-01-01 07:41:00,41.8,39.9,30.15,NNE,12,7.0,7.0,93,0.00,,OVC090,0.00,0.00,VWS V14.01,2013-01-01 13:41:00,
2013-01-01 07:46:00,41.8,39.9,30.13,North,5,4.0,8.0,93,0.00,,OVC090,0.00,9.00,VWS V14.01,2013-01-01 13:46:00,
2013-01-01 07:51:00,41.8,39.7,30.13,NNW,338,7.0,7.0,92,0.00,,OVC090,0.00,7.00,VWS V14.01,2013-01-01 13:51:00,
2013-01-01 07:56:00,41.8,39.7,30.13,NNW,345,8.0,9.0,92,0.00,,OVC090,0.00,14.00,VWS V14.01,2013-01-01 13:56:00,
2013-01-01 08:01:00,41.8,39.7,30.15,NNW,344,6.0,6.0,92,0.00,,OVC090,0.00,19.00,VWS V14.01,2013-01-01 14:01:00,
2013-01-01 08:06:00,41.8,39.7,30.15,NNW,344,7.0,10.0,92,0.00,,OVC090,0.00,33.00,VWS V14.01,2013-01-01 14:06:00,
2013-01-01 08:11:00,41.8,39.7,30.15,NNW,346,3.0,6.0,92,0.00,,OVC090,0.00,26.00,VWS V14.01,2013-01-01 14:11:00,
2013-01-01 08:16:00,42.0,39.6,30.14,NNE,32,2.0,2.0,91,0.00,,OVC090,0.00,25.00,VWS V14.01,2013-01-01 14:16:00,
2013-01-01 08:21:00,42.1,39.7,30.14,West,263,2.0,3.0,91,0.00,,OVC090,0.00,25.00,VWS V14.01,2013-01-01 14:21:00,
2013-01-01 08:26:00,42.0,39.6,30.14,WNW,292,3.0,7.0,91,0.00,,OVC090,0.00,25.00,VWS V14.01,2013-01-01 14:26:00,
2013-01-01 08:31:00,41.9,39.5,30.14,NE,43,2.0,7.0,91,0.00,,OVC090,0.00,25.00,VWS V14.01,2013-01-01 14:31:00,
2013-01-01 08:36:00,41.9,39.5,30.14,WNW,302,1.0,7.0,91,0.00,,OVC090,0.00,25.00,VWS V14.01,2013-01-01 14:36:00,
2013-01-01 08:41:00,41.9,39.5,30.14,WNW,300,3.0,6.0,91,0.00,,OVC090,0.00,25.00,VWS V14.01,2013-01-01 14:41:00,
2013-01-01 08:46:00,41.8,39.4,30.15,NE,36,4.0,10.0,91,0.00,,OVC090,0.00,25.00,VWS V14.01,2013-01-01 14:46:00,
2013-01-01 08:51:00,41.8,39.4,30.15,NNE,22,6.0,8.0,91,0.00,,OVC090,0.00,25.00,VWS V14.01,2013-01-01 14:51:00,
2013-01-01 08:56:00,41.7,39.3,30.15,NNW,331,6.0,11.0,91,0.00,,OVC090,0.00,25.00,VWS V14.01,2013-01-01 14:56:00,
2013-01-01 09:01:00,41.8,39.7,30.16,NNE,29,4.0,7.0,92,0.00,,OVC009,0.00,25.00,VWS V14.01,2013-01-01 15:01:00,
2013-01-01 09:06:00,41.8,39.7,30.16,WNW,292,7.0,11.0,92,0.00,,OVC009,0.00,25.00,VWS V14.01,2013-01-01 15:06:00,
2013-01-01 09:11:00,41.8,39.4,30.16,WNW,299,10.0,10.0,91,0.00,,OVC009,0.00,25.00,VWS V14.01,2013-01-01 15:11:00,
2013-01-01 09:16:00,41.7,39.3,30.18,NNW,338,3.0,11.0,91,0.00,,OVC009,0.00,25.00,VWS V14.01,2013-01-01 15:16:00,
2013-01-01 09:21:00,41.7,39.3,30.18,NNW,347,5.0,7.0,91,0.00,,OVC009,0.00,25.00,VWS V14.01,2013-01-01 15:21:00,
2013-01-01 09:26:00,41.6,39.2,30.18,West,273,2.0,13.0,91,0.00,,OVC009,0.00,25.00,VWS V14.01,2013-01-01 15:26:00,
2013-01-01 09:31:00,41.5,39.1,30.18,West,279,4.0,11.0,91,0.00,,OVC009,0.00,25.00,VWS V14.01,2013-01-01 15:31:00,
2013-01-01 09:36:00,41.5,39.1,30.18,NE,36,6.0,11.0,91,0.00,,,0.00,25.00,VWS V14.01,2013-01-01 15:36:00,
2013-01-01 09:41:00,41.5,39.1,30.18,NW,315,7.0,11.0,91,0.00,,,0.00,25.00,VWS V14.01,2013-01-01 15:41:00,
2013-01-01 09:46:00,41.5,39.1,30.20,NNW,344,6.0,12.0,91,0.00,,,0.00,25.00,VWS V14.01,2013-01-01 15:46:00,
2013-01-01 09:51:00,41.5,39.1,30.20,WNW,298,7.0,11.0,91,0.00,,,0.00,25.00,VWS V14.01,2013-01-01 15:51:00,
2013-01-01 09:56:00,41.3,38.6,30.20,WNW,298,7.0,13.0,90,0.00,,,0.00,25.00,VWS V14.01,2013-01-01 15:56:00,
2013-01-01 10:01:00,41.2,38.5,30.20,NW,311,8.0,16.0,90,0.00,,,0.00,25.00,VWS V14.01,2013-01-01 16:01:00,
2013-01-01 10:06:00,41.2,38.5,30.20,NW,324,9.0,16.0,90,0.00,,,0.00,25.00,VWS V14.01,2013-01-01 16:06:00,
2013-01-01 10:11:00,41.2,38.5,30.20,WNW,292,2.0,10.0,90,0.00,,,0.00,25.00,VWS V14.01,2013-01-01 16:11:00,
2013-01-01 10:16:00,41.2,38.5,30.21,NNW,328,3.0,13.0,90,0.00,,,0.00,25.00,VWS V14.01,2013-01-01 16:16:00,
2013-01-01 10:21:00,41.1,38.4,30.21,NNE,22,11.0,11.0,90,0.00,,,0.00,25.00,VWS V14.01,2013-01-01 16:21:00,
2013-01-01 10:26:00,41.2,38.8,30.21,West,266,6.0,11.0,91,0.00,,,0.00,25.00,VWS V14.01,2013-01-01 16:26:00,
2013-01-01 10:31:00,41.1,38.4,30.22,NNW,328,1.0,6.0,90,0.00,,,0.00,25.00,VWS V14.01,2013-01-01 16:31:00,
2013-01-01 10:36:00,41.2,38.5,30.22,NW,306,6.0,10.0,90,0.00,,OVC009,0.00,25.00,VWS V14.01,2013-01-01 16:36:00,
2013-01-01 10:41:00,41.2,38.5,30.22,West,279,2.0,9.0,90,0.00,,OVC009,0.00,25.00,VWS V14.01,2013-01-01 16:41:00,
2013-01-01 10:46:00,41.3,38.6,30.23,WNW,302,3.0,9.0,90,0.00,,OVC009,0.00,25.00,VWS V14.01,2013-01-01 16:46:00,
2013-01-01 10:51:00,41.3,38.6,30.23,NW,311,4.0,7.0,90,0.00,,OVC009,0.00,25.00,VWS V14.01,2013-01-01 16:51:00,
2013-01-01 10:56:00,41.4,38.4,30.23,WNW,286,10.0,14.0,89,0.00,,OVC009,0.00,25.00,VWS V14.01,2013-01-01 16:56:00,
2013-01-01 11:01:00,41.5,38.5,30.23,NNW,329,5.0,10.0,89,0.00,,OVC009,0.00,25.00,VWS V14.01,2013-01-01 17:01:00,
2013-01-01 11:06:00,41.5,38.5,30.23,NW,310,3.0,10.0,89,0.00,,,0.00,25.00,VWS V14.01,2013-01-01 17:06:00,
2013-01-01 11:11:00,41.6,38.6,30.23,North,11,9.0,11.0,89,0.00,,OVC009,0.00,25.00,VWS V14.01,2013-01-01 17:11:00,
2013-01-01 11:16:00,41.5,38.5,30.23,WNW,288,4.0,11.0,89,0.00,,OVC009,0.00,25.00,VWS V14.01,2013-01-01 17:16:00,
2013-01-01 11:21:00,41.5,38.5,30.23,WNW,302,4.0,8.0,89,0.00,,OVC009,0.00,25.00,VWS V14.01,2013-01-01 17:21:00,
2013-01-01 11:26:00,41.6,38.3,30.23,WNW,290,8.0,8.0,88,0.00,,OVC009,0.00,25.00,VWS V14.01,2013-01-01 17:26:00,
2013-01-01 11:31:00,41.4,38.1,30.23,WNW,301,10.0,11.0,88,0.00,,OVC009,0.00,25.00,VWS V14.01,2013-01-01 17:31:00,
2013-01-01 11:36:00,41.3,38.0,30.23,WNW,303,11.0,12.0,88,0.00,,,0.00,25.00,VWS V14.01,2013-01-01 17:36:00,
2013-01-01 11:41:00,41.2,37.9,30.23,NNE,19,9.0,9.0,88,0.00,,,0.00,25.00,VWS V14.01,2013-01-01 17:41:00,
2013-01-01 11:46:00,41.0,37.7,30.22,WNW,299,10.0,12.0,88,0.00,,,0.00,25.00,VWS V14.01,2013-01-01 17:46:00,
2013-01-01 11:51:00,40.8,37.8,30.22,NW,317,2.0,10.0,89,0.00,,,0.00,25.00,VWS V14.01,2013-01-01 17:51:00,
2013-01-01 11:56:00,40.9,37.9,30.22,NW,311,3.0,10.0,89,0.00,,,0.00,25.00,VWS V14.01,2013-01-01 17:56:00,
2013-01-01 12:01:00,41.1,38.1,30.22,NW,311,4.0,7.0,89,0.00,,,0.00,25.00,VWS V14.01,2013-01-01 18:01:00,
2013-01-01 12:06:00,41.1,38.1,30.22,NNW,347,5.0,10.0,89,0.00,,,0.00,25.00,VWS V14.01,2013-01-01 18:06:00,
2013-01-01 12:11:00,41.1,37.8,30.22,WNW,284,2.0,9.0,88,0.00,,,0.00,25.00,VWS V14.01,2013-01-01 18:11:00,
2013-01-01 12:16:00,41.3,38.0,30.22,NW,318,4.0,11.0,88,0.00,,,0.00,25.00,VWS V14.01,2013-01-01 18:16:00,
2013-01-01 12:21:00,41.5,37.9,30.22,NNW,340,4.0,11.0,87,0.00,,,0.00,25.00,VWS V14.01,2013-01-01 18:21:00,
2013-01-01 12:26:00,41.5,37.9,30.22,NNE,27,3.0,11.0,87,0.00,,,0.00,25.00,VWS V14.01,2013-01-01 18:26:00,
2013-01-01 12:31:00,41.7,38.1,30.21,NNE,15,2.0,7.0,87,0.00,,,0.00,25.00,VWS V14.01,2013-01-01 18:31:00,
2013-01-01 12:36:00,41.7,38.1,30.21,WNW,288,3.0,10.0,87,0.00,,,0.00,25.00,VWS V14.01,2013-01-01 18:36:00,
2013-01-01 12:41:00,41.6,38.0,30.21,NW,311,9.0,9.0,87,0.00,,,0.00,25.00,VWS V14.01,2013-01-01 18:41:00,
2013-01-01 12:46:00,41.5,37.6,30.20,NW,306,9.0,13.0,86,0.00,,,0.00,25.00,VWS V14.01,2013-01-01 18:46:00,
2013-01-01 12:51:00,41.4,37.5,30.20,WNW,291,6.0,9.0,86,0.00,,,0.00,25.00,VWS V14.01,2013-01-01 18:51:00,
2013-01-01 12:56:00,41.5,37.6,30.20,NW,310,3.0,11.0,86,0.00,,,0.00,25.00,VWS V14.01,2013-01-01 18:56:00,
2013-01-01 13:01:00,41.6,38.0,30.20,NW,309,5.0,10.0,87,0.00,,,0.00,25.00,VWS V14.01,2013-01-01 19:01:00,
2013-01-01 13:06:00,41.6,37.7,30.20,NNW,327,2.0,12.0,86,0.00,,,0.00,25.00,VWS V14.01,2013-01-01 19:06:00,
2013-01-01 13:11:00,41.6,37.7,30.20,NW,321,4.0,8.0,86,0.00,,,0.00,25.00,VWS V14.01,2013-01-01 19:11:00,
2013-01-01 13:16:00,41.8,37.9,30.19,NW,318,3.0,8.0,86,0.00,,,0.00,25.00,VWS V14.01,2013-01-01 19:16:00,
2013-01-01 13:21:00,41.8,37.6,30.19,NW,322,5.0,10.0,85,0.00,,,0.00,25.00,VWS V14.01,2013-01-01 19:21:00,
2013-01-01 13:26:00,41.8,37.9,30.19,NNE,19,3.0,10.0,86,0.00,,,0.00,25.00,VWS V14.01,2013-01-01 19:26:00,
2013-01-01 13:31:00,41.9,37.7,30.18,NW,318,11.0,13.0,85,0.00,,,0.00,25.00,VWS V14.01,2013-01-01 19:31:00,
2013-01-01 13:36:00,41.7,37.5,30.18,WSW,243,3.0,13.0,85,0.00,,OVC016,0.00,25.00,VWS V14.01,2013-01-01 19:36:00,
2013-01-01 13:41:00,41.7,37.5,30.18,NNW,346,2.0,9.0,85,0.00,,OVC016,0.00,25.00,VWS V14.01,2013-01-01 19:41:00,
2013-01-01 13:46:00,41.7,37.5,30.18,NW,310,4.0,13.0,85,0.00,,OVC016,0.00,25.00,VWS V14.01,2013-01-01 19:46:00,
2013-01-01 13:51:00,41.5,37.3,30.18,WNW,302,4.0,11.0,85,0.00,,OVC016,0.00,25.00,VWS V14.01,2013-01-01 19:51:00,
2013-01-01 13:56:00,41.3,37.1,30.18,WNW,302,5.0,12.0,85,0.00,,OVC016,0.00,25.00,VWS V14.01,2013-01-01 19:56:00,
2013-01-01 14:01:00,41.1,36.9,30.19,WNW,303,2.0,14.0,85,0.00,,OVC016,0.00,25.00,VWS V14.01,2013-01-01 20:01:00,
2013-01-01 14:06:00,40.9,36.8,30.19,WNW,298,8.0,14.0,85,0.00,,OVC016,0.00,25.00,VWS V14.01,2013-01-01 20:06:00,
2013-01-01 14:11:00,40.9,36.8,30.19,NW,317,6.0,9.0,85,0.00,,OVC016,0.00,25.00,VWS V14.01,2013-01-01 20:11:00,
2013-01-01 14:16:00,41.0,36.8,30.19,NW,308,3.0,11.0,85,0.00,,OVC016,0.00,25.00,VWS V14.01,2013-01-01 20:16:00,
2013-01-01 14:21:00,41.2,37.3,30.19,NNW,333,1.0,6.0,86,0.00,,OVC016,0.00,25.00,VWS V14.01,2013-01-01 20:21:00,
2013-01-01 14:26:00,41.3,37.1,30.19,NNW,338,5.0,14.0,85,0.00,,OVC016,0.00,25.00,VWS V14.01,2013-01-01 20:26:00,
2013-01-01 14:31:00,41.1,36.9,30.20,NW,304,11.0,12.0,85,0.00,,OVC016,0.00,25.00,VWS V14.01,2013-01-01 20:31:00,
2013-01-01 14:36:00,41.0,36.8,30.20,WNW,291,6.0,15.0,85,0.00,,OVC018,0.00,25.00,VWS V14.01,2013-01-01 20:36:00,
2013-01-01 14:41:00,40.9,36.8,30.20,NW,315,9.0,13.0,85,0.00,,OVC018,0.00,25.00,VWS V14.01,2013-01-01 20:41:00,
2013-01-01 14:46:00,40.8,36.9,30.19,NW,319,9.0,15.0,86,0.00,,OVC018,0.00,25.00,VWS V14.01,2013-01-01 20:46:00,
2013-01-01 14:51:00,40.8,36.7,30.19,NW,322,6.0,11.0,85,0.00,,OVC018,0.00,25.00,VWS V14.01,2013-01-01 20:51:00,
2013-01-01 14:56:00,40.8,36.3,30.19,NW,309,4.0,13.0,84,0.00,,OVC018,0.00,25.00,VWS V14.01,2013-01-01 20:56:00,
2013-01-01 15:01:00,40.9,36.8,30.18,West,273,5.0,10.0,85,0.00,,OVC018,0.00,25.00,VWS V14.01,2013-01-01 21:01:00,
2013-01-01 15:06:00,41.0,36.5,30.18,NW,306,2.0,12.0,84,0.00,,OVC018,0.00,25.00,VWS V14.01,2013-01-01 21:06:00,
2013-01-01 15:24:00,41.2,37.0,30.20,NNW,348,6.0,6.0,85,0.00,,OVC018,0.00,25.00,VWS V14.01,2013-01-01 21:24:00,
2013-01-01 15:29:00,41.3,36.8,30.20,WNW,295,4.0,6.0,84,0.00,,OVC018,0.00,25.00,VWS V14.01,2013-01-01 21:29:00,
2013-01-01 15:34:00,41.2,36.7,30.20,NNW,330,5.0,11.0,84,0.00,,OVC016,0.00,25.00,VWS V14.01,2013-01-01 21:34:00,
2013-01-01 15:39:00,41.2,36.7,30.20,NW,306,2.0,3.0,84,0.00,,OVC016,0.00,25.00,VWS V14.01,2013-01-01 21:39:00,
2013-01-01 15:44:00,41.2,36.4,30.20,NNE,22,7.0,10.0,83,0.00,,OVC016,0.00,25.00,VWS V14.01,2013-01-01 21:44:00,
2013-01-01 15:49:00,41.1,36.3,30.20,NNW,344,2.0,3.0,83,0.00,,OVC016,0.00,25.00,VWS V14.01,2013-01-01 21:49:00,
2013-01-01 15:54:00,41.0,36.5,30.20,NNW,344,5.0,8.0,84,0.00,,OVC016,0.00,25.00,VWS V14.01,2013-01-01 21:54:00,
2013-01-01 15:59:00,40.9,36.1,30.20,West,264,5.0,8.0,83,0.00,,OVC016,0.00,25.00,VWS V14.01,2013-01-01 21:59:00,
2013-01-01 16:04:00,40.8,36.0,30.20,NW,319,3.0,10.0,83,0.00,,OVC016,0.00,25.00,VWS V14.01,2013-01-01 22:04:00,
2013-01-01 16:09:00,40.8,36.0,30.20,WNW,303,5.0,6.0,83,0.00,,OVC016,0.00,25.00,VWS V14.01,2013-01-01 22:09:00,
2013-01-01 16:14:00,40.7,36.2,30.21,WNW,300,6.0,9.0,84,0.00,,OVC016,0.00,25.00,VWS V14.01,2013-01-01 22:14:00,
2013-01-01 16:19:00,40.7,36.2,30.21,NW,322,2.0,5.0,84,0.00,,OVC016,0.00,25.00,VWS V14.01,2013-01-01 22:19:00,
2013-01-01 16:24:00,40.7,36.2,30.21,WNW,286,4.0,7.0,84,0.00,,OVC016,0.00,25.00,VWS V14.01,2013-01-01 22:24:00,
2013-01-01 16:29:00,40.7,36.2,30.21,NNW,344,1.0,7.0,84,0.00,,OVC016,0.00,25.00,VWS V14.01,2013-01-01 22:29:00,
2013-01-01 16:34:00,40.6,36.2,30.21,NW,326,3.0,7.0,84,0.00,,OVC017,0.00,25.00,VWS V14.01,2013-01-01 22:34:00,
2013-01-01 16:39:00,40.6,36.2,30.21,NNW,331,4.0,6.0,84,0.00,,OVC017,0.00,25.00,VWS V14.01,2013-01-01 22:39:00,
2013-01-01 16:44:00,40.4,36.0,30.22,NNW,327,6.0,10.0,84,0.00,,OVC017,0.00,25.00,VWS V14.01,2013-01-01 22:44:00,
2013-01-01 16:49:00,40.3,35.9,30.22,NE,39,2.0,2.0,84,0.00,,OVC017,0.00,25.00,VWS V14.01,2013-01-01 22:49:00,
2013-01-01 16:54:00,40.3,35.9,30.22,NE,53,2.0,8.0,84,0.00,,OVC017,0.00,25.00,VWS V14.01,2013-01-01 22:54:00,
2013-01-01 16:59:00,40.2,35.8,30.23,NW,304,2.0,4.0,84,0.00,,OVC017,0.00,25.00,VWS V14.01,2013-01-01 22:59:00,
2013-01-01 17:04:00,40.1,35.4,30.23,West,267,4.0,8.0,83,0.00,,OVC017,0.00,25.00,VWS V14.01,2013-01-01 23:04:00,
2013-01-01 17:09:00,40.1,35.4,30.23,WSW,248,7.0,9.0,83,0.00,,OVC017,0.00,25.00,VWS V14.01,2013-01-01 23:09:00,
2013-01-01 17:14:00,40.0,35.3,30.23,WNW,301,5.0,9.0,83,0.00,,OVC017,0.00,25.00,VWS V14.01,2013-01-01 23:14:00,
2013-01-01 17:19:00,39.9,35.2,30.23,NNW,331,3.0,7.0,83,0.00,,OVC017,0.00,25.00,VWS V14.01,2013-01-01 23:19:00,
2013-01-01 17:24:00,39.9,35.2,30.23,WNW,292,7.0,10.0,83,0.00,,OVC017,0.00,25.00,VWS V14.01,2013-01-01 23:24:00,
2013-01-01 17:29:00,39.9,35.2,30.24,NW,319,2.0,5.0,83,0.00,,OVC017,0.00,25.00,VWS V14.01,2013-01-01 23:29:00,
2013-01-01 17:34:00,39.8,35.1,30.24,WSW,250,2.0,10.0,83,0.00,,OVC017,0.00,25.00,VWS V14.01,2013-01-01 23:34:00,
2013-01-01 17:39:00,39.7,35.0,30.24,NNW,330,6.0,10.0,83,0.00,,OVC017,0.00,25.00,VWS V14.01,2013-01-01 23:39:00,
2013-01-01 17:44:00,39.6,35.2,30.24,WSW,244,2.0,10.0,84,0.00,,OVC017,0.00,25.00,VWS V14.01,2013-01-01 23:44:00,
2013-01-01 17:49:00,39.4,34.7,30.24,NNW,342,6.0,7.0,83,0.00,,OVC017,0.00,25.00,VWS V14.01,2013-01-01 23:49:00,
2013-01-01 17:54:00,39.3,34.9,30.24,NNW,344,3.0,7.0,84,0.00,,OVC017,0.00,25.00,VWS V14.01,2013-01-01 23:54:00,
2013-01-01 17:59:00,39.3,34.9,30.25,NE,36,4.0,5.0,84,0.00,,OVC017,0.00,25.00,VWS V14.01,2013-01-01 23:59:00,
2013-01-01 18:04:00,39.2,34.8,30.25,NW,323,6.0,9.0,84,0.00,,OVC017,0.00,25.00,VWS V14.01,2013-01-02 00:04:00,
2013-01-01 18:09:00,39.1,34.7,30.25,NNW,346,2.0,7.0,84,0.00,,OVC017,0.00,25.00,VWS V14.01,2013-01-02 00:09:00,
2013-01-01 18:14:00,39.0,34.6,30.25,NW,313,4.0,9.0,84,0.00,,OVC017,0.00,25.00,VWS V14.01,2013-01-02 00:14:00,
2013-01-01 18:19:00,38.9,34.5,30.25,North,350,7.0,7.0,84,0.00,,OVC017,0.00,25.00,VWS V14.01,2013-01-02 00:19:00,
2013-01-01 18:24:00,38.9,34.5,30.25,NNE,19,3.0,10.0,84,0.00,,OVC017,0.00,25.00,VWS V14.01,2013-01-02 00:24:00,
2013-01-01 18:29:00,38.8,34.4,30.25,NE,39,3.0,3.0,84,0.00,,OVC017,0.00,25.00,VWS V14.01,2013-01-02 00:29:00,
2013-01-01 18:34:00,38.8,34.4,30.25,NW,324,6.0,10.0,84,0.00,,OVC017,0.00,25.00,VWS V14.01,2013-01-02 00:34:00,
2013-01-01 18:39:00,38.7,34.3,30.25,WNW,302,4.0,7.0,84,0.00,,OVC017,0.00,25.00,VWS V14.01,2013-01-02 00:39:00,
2013-01-01 18:44:00,38.7,34.3,30.26,NW,319,3.0,9.0,84,0.00,,OVC017,0.00,25.00,VWS V14.01,2013-01-02 00:44:00,
2013-01-01 18:49:00,38.6,34.2,30.26,NNW,328,4.0,6.0,84,0.00,,OVC017,0.00,25.00,VWS V14.01,2013-01-02 00:49:00,
2013-01-01 18:54:00,38.6,34.2,30.26,NNW,338,2.0,9.0,84,0.00,,OVC017,0.00,25.00,VWS V14.01,2013-01-02 00:54:00,
2013-01-01 18:59:00,38.6,33.9,30.26,NW,321,1.0,5.0,83,0.00,,OVC017,0.00,25.00,VWS V14.01,2013-01-02 00:59:00,
2013-01-01 19:04:00,38.6,33.9,30.26,NW,317,5.0,12.0,83,0.00,,OVC017,0.00,25.00,VWS V14.01,2013-01-02 01:04:00,
2013-01-01 19:09:00,38.5,33.8,30.26,WNW,292,1.0,1.0,83,0.00,,OVC017,0.00,25.00,VWS V14.01,2013-01-02 01:09:00,
2013-01-01 19:14:00,38.6,34.2,30.26,NNE,13,6.0,6.0,84,0.00,,OVC017,0.00,25.00,VWS V14.01,2013-01-02 01:14:00,
2013-01-01 19:19:00,38.6,34.2,30.26,NW,315,1.0,3.0,84,0.00,,OVC017,0.00,25.00,VWS V14.01,2013-01-02 01:19:00,
2013-01-01 19:24:00,38.5,33.8,30.26,NW,321,2.0,7.0,83,0.00,,OVC017,0.00,25.00,VWS V14.01,2013-01-02 01:24:00,
2013-01-01 19:29:00,38.3,33.6,30.26,WNW,295,4.0,4.0,83,0.00,,OVC017,0.00,25.00,VWS V14.01,2013-01-02 01:29:00,
2013-01-01 19:34:00,38.3,33.3,30.26,NNW,333,1.0,9.0,82,0.00,,OVC018,0.00,25.00,VWS V14.01,2013-01-02 01:34:00,
2013-01-01 19:39:00,38.3,33.3,30.26,WNW,283,2.0,4.0,82,0.00,,OVC018,0.00,25.00,VWS V14.01,2013-01-02 01:39:00,
2013-01-01 19:44:00,38.3,33.3,30.26,NW,304,4.0,6.0,82,0.00,,OVC018,0.00,25.00,VWS V14.01,2013-01-02 01:44:00,
2013-01-01 19:49:00,38.2,33.2,30.26,NW,311,5.0,6.0,82,0.00,,OVC018,0.00,25.00,VWS V14.01,2013-01-02 01:49:00,
2013-01-01 19:54:00,38.2,33.2,30.26,NW,309,1.0,7.0,82,0.00,,OVC018,0.00,25.00,VWS V14.01,2013-01-02 01:54:00,
2013-01-01 19:59:00,38.2,33.2,30.26,NW,318,7.0,7.0,82,0.00,,OVC018,0.00,25.00,VWS V14.01,2013-01-02 01:59:00,
2013-01-01 20:04:00,38.1,33.1,30.26,NNW,340,5.0,9.0,82,0.00,,OVC018,0.00,25.00,VWS V14.01,2013-01-02 02:04:00,
2013-01-01 20:09:00,38.0,33.0,30.26,NW,320,5.0,6.0,82,0.00,,OVC018,0.00,25.00,VWS V14.01,2013-01-02 02:09:00,
2013-01-01 20:14:00,37.9,33.2,30.26,NNW,333,4.0,9.0,83,0.00,,OVC018,0.00,25.00,VWS V14.01,2013-01-02 02:14:00,
2013-01-01 20:19:00,37.9,33.2,30.26,North,351,1.0,2.0,83,0.00,,OVC018,0.00,25.00,VWS V14.01,2013-01-02 02:19:00,
2013-01-01 20:24:00,37.9,33.2,30.26,WNW,292,1.0,6.0,83,0.00,,OVC018,0.00,25.00,VWS V14.01,2013-01-02 02:24:00,
2013-01-01 20:29:00,37.9,33.2,30.26,NW,322,2.0,4.0,83,0.00,,OVC018,0.00,25.00,VWS V14.01,2013-01-02 02:29:00,
2013-01-01 20:34:00,37.8,33.1,30.26,NNW,336,3.0,7.0,83,0.00,,OVC020,0.00,25.00,VWS V14.01,2013-01-02 02:34:00,
2013-01-01 20:39:00,37.8,33.4,30.26,NW,311,0.0,1.0,84,0.00,,OVC020,0.00,25.00,VWS V14.01,2013-01-02 02:39:00,
2013-01-01 20:44:00,37.8,33.4,30.26,NW,317,2.0,5.0,84,0.00,,OVC020,0.00,25.00,VWS V14.01,2013-01-02 02:44:00,
2013-01-01 20:49:00,37.7,33.3,30.26,North,350,3.0,3.0,84,0.00,,OVC020,0.00,25.00,VWS V14.01,2013-01-02 02:49:00,
2013-01-01 20:54:00,37.7,33.0,30.26,WNW,302,4.0,7.0,83,0.00,,OVC020,0.00,25.00,VWS V14.01,2013-01-02 02:54:00,
2013-01-01 20:59:00,37.6,32.9,30.26,NNW,344,5.0,5.0,83,0.00,,OVC020,0.00,25.00,VWS V14.01,2013-01-02 02:59:00,
2013-01-01 21:04:00,37.6,32.9,30.26,NNW,347,4.0,7.0,83,0.00,,OVC020,0.00,25.00,VWS V14.01,2013-01-02 03:04:00,
2013-01-01 21:09:00,37.6,32.9,30.26,NW,322,2.0,4.0,83,0.00,,OVC020,0.00,25.00,VWS V14.01,2013-01-02 03:09:00,
2013-01-01 21:14:00,37.6,33.2,30.26,WNW,292,1.0,4.0,84,0.00,,OVC020,0.00,25.00,VWS V14.01,2013-01-02 03:14:00,
2013-01-01 21:19:00,37.5,32.8,30.26,WNW,295,3.0,4.0,83,0.00,,OVC020,0.00,25.00,VWS V14.01,2013-01-02 03:19:00,
2013-01-01 21:24:00,37.5,32.8,30.26,WNW,297,3.0,7.0,83,0.00,,OVC020,0.00,25.00,VWS V14.01,2013-01-02 03:24:00,
2013-01-01 21:29:00,37.5,32.8,30.26,NNW,348,3.0,4.0,83,0.00,,OVC020,0.00,25.00,VWS V14.01,2013-01-02 03:29:00,
2013-01-01 21:34:00,37.4,32.7,30.26,North,355,5.0,8.0,83,0.00,,OVC020,0.00,25.00,VWS V14.01,2013-01-02 03:34:00,
2013-01-01 21:39:00,37.4,32.7,30.26,WNW,287,3.0,3.0,83,0.00,,OVC020,0.00,25.00,VWS V14.01,2013-01-02 03:39:00,
2013-01-01 21:44:00,37.4,32.7,30.27,NNW,333,4.0,7.0,83,0.00,,OVC020,0.00,25.00,VWS V14.01,2013-01-02 03:44:00,
2013-01-01 21:49:00,37.4,32.7,30.27,NW,317,2.0,4.0,83,0.00,,OVC020,0.00,25.00,VWS V14.01,2013-01-02 03:49:00,
2013-01-01 21:54:00,37.3,32.6,30.27,NW,321,4.0,10.0,83,0.00,,OVC020,0.00,25.00,VWS V14.01,2013-01-02 03:54:00,
2013-01-01 21:59:00,37.3,32.6,30.27,WNW,299,2.0,5.0,83,0.00,,OVC020,0.00,25.00,VWS V14.01,2013-01-02 03:59:00,
2013-01-01 22:04:00,37.3,32.3,30.27,NW,321,5.0,7.0,82,0.00,,OVC020,0.00,25.00,VWS V14.01,2013-01-02 04:04:00,
2013-01-01 22:09:00,37.3,32.6,30.27,WSW,253,9.0,9.0,83,0.00,,OVC020,0.00,25.00,VWS V14.01,2013-01-02 04:09:00,
2013-01-01 22:14:00,37.2,32.5,30.28,NNW,344,1.0,9.0,83,0.00,,OVC020,0.00,25.00,VWS V14.01,2013-01-02 04:14:00,
2013-01-01 22:19:00,37.2,32.2,30.28,WNW,292,5.0,5.0,82,0.00,,OVC020,0.00,25.00,VWS V14.01,2013-01-02 04:19:00,
2013-01-01 22:24:00,37.1,32.4,30.28,NW,310,2.0,11.0,83,0.00,,OVC020,0.00,25.00,VWS V14.01,2013-01-02 04:24:00,
2013-01-01 22:29:00,37.1,32.4,30.28,West,275,2.0,6.0,83,0.00,,OVC020,0.00,25.00,VWS V14.01,2013-01-02 04:29:00,
2013-01-01 22:34:00,37.0,32.0,30.28,NW,321,4.0,10.0,82,0.00,,OVC023,0.00,25.00,VWS V14.01,2013-01-02 04:34:00,
2013-01-01 22:39:00,37.0,32.0,30.28,WNW,292,5.0,5.0,82,0.00,,OVC023,0.00,25.00,VWS V14.01,2013-01-02 04:39:00,
2013-01-01 22:44:00,36.9,31.9,30.29,NNW,339,6.0,7.0,82,0.00,,OVC023,0.00,25.00,VWS V14.01,2013-01-02 04:44:00,
2013-01-01 22:49:00,36.8,31.8,30.29,WNW,299,2.0,3.0,82,0.00,,OVC023,0.00,25.00,VWS V14.01,2013-01-02 04:49:00,
2013-01-01 22:54:00,36.9,31.9,30.29,NNW,331,1.0,7.0,82,0.00,,OVC023,0.00,25.00,VWS V14.01,2013-01-02 04:54:00,
2013-01-01 22:59:00,36.8,31.8,30.29,West,275,2.0,4.0,82,0.00,,OVC023,0.00,25.00,VWS V14.01,2013-01-02 04:59:00,
2013-01-01 23:00:00,36.8,31.8,30.29,West,268,3.0,4.0,82,0.00,,OVC023,0.00,25.00,VWS V14.01,2013-01-02 05:00:00,
2013-01-01 23:05:00,36.7,31.4,30.29,North,349,7.0,9.0,81,0.00,,OVC023,0.00,25.00,VWS V14.01,2013-01-02 05:05:00,
2013-01-01 23:10:00,36.7,31.4,30.29,WNW,297,2.0,4.0,81,0.00,,OVC023,0.00,25.00,VWS V14.01,2013-01-02 05:10:00,
2013-01-01 23:15:00,36.7,31.4,30.28,NW,319,2.0,5.0,81,0.00,,OVC023,0.00,25.00,VWS V14.01,2013-01-02 05:15:00,
2013-01-01 23:20:00,36.6,31.3,30.28,NW,318,2.0,6.0,81,0.00,,OVC023,0.00,25.00,VWS V14.01,2013-01-02 05:20:00,
2013-01-01 23:25:00,36.5,31.2,30.28,WNW,286,5.0,10.0,81,0.00,,OVC023,0.00,25.00,VWS V14.01,2013-01-02 05:25:00,
2013-01-01 23:30:00,36.5,31.2,30.29,NW,309,5.0,7.0,81,0.00,,OVC023,0.00,25.00,VWS V14.01,2013-01-02 05:30:00,
2013-01-01 23:35:00,36.5,31.2,30.29,NW,306,4.0,10.0,81,0.00,,OVC023,0.00,25.00,VWS V14.01,2013-01-02 05:35:00,
2013-01-01 23:40:00,36.5,31.2,30.29,NNE,22,1.0,6.0,81,0.00,,OVC023,0.00,25.00,VWS V14.01,2013-01-02 05:40:00,
2013-01-01 23:45:00,36.4,31.4,30.29,NNW,333,2.0,6.0,82,0.00,,OVC023,0.00,25.00,VWS V14.01,2013-01-02 05:45:00,
2013-01-01 23:50:00,36.4,31.4,30.29,West,261,2.0,4.0,82,0.00,,OVC023,0.00,25.00,VWS V14.01,2013-01-02 05:50:00,
2013-01-01 23:55:00,36.4,31.1,30.29,NW,322,5.0,10.0,81,0.00,,OVC023,0.00,25.00,VWS V14.01,2013-01-02 05:55:00,